sat.trackr.live / text

‹ back to catalog

STARLINK-11152 [DTC]

NORAD 60194 · 2024-124M

PAYLOAD ACTIVE UNKNOWN

§ Identity

Operator
Country
US
Launch date
2024-07-03
Launch site
AFETR
Launch vehicle
Mass (kg)
RCS (m²)

Purposes: comms

External: N2YO · Heavens-Above · Gunter

§ Orbital elements

Epoch: 2026-05-25T03:45:21.968064Z

Period
91.74 min
Inclination
53.1569°
Eccentricity
0.0001443
Mean motion
15.69701931 rev/d
Perigee alt
358.8 km
Apogee alt
360.7 km
Semi-major
6,737.9 km
B*
-2.7442e-5
RAAN
144.3285°
Arg perigee
82.3006°
Mean anomaly
277.8176°
Rev number
10,973

§ Raw data

STARLINK-11152 [DTC]1 60194U 24124M   26145.15650426 -.00003911  00000+0 -27442-4 0  99982 60194  53.1569 144.3285 0001443  82.3006 277.8176 15.69701931109739

JSON: /api/v1/satellites/60194 · /tle

For live sub-satellite position, see the globe view (requires WebGL).

§ Visibility from observer

Set your observer location to see the next 7 days of passes ≥ 10°. The values pass through the URL so the page stays shareable.

No JS? Fill the form by hand. The geolocation button needs JavaScript.